Weather History for New Orleans Lakefront, LA

Change the Weather History Date:

Thursday, May 8, 2014

  Actual Average Record
Temperature  
Mean Temperature 79 °F 75 °F  
Max Temperature 86 °F 84 °F 91 °F (1998)
Min Temperature 71 °F 66 °F 48 °F (1992)
Degree Days  
Heating Degree Days 0 0  
Month to date heating degree days 0 0  
Since 1 July heating degree days 1581 1279  
Cooling Degree Days 14 10  
Month to date cooling degree days 63 72  
Year to date cooling degree days 266 329  
Growing Degree Days 28 (Base 50)    
Moisture  
Dew Point 69 °F    
Average Humidity 72    
Maximum Humidity 93    
Minimum Humidity 51    
Precipitation  
Precipitation 0.00 in 0.15 in 12.24 in (1995)
Month to date precipitation 0.00 1.15  
Year to date precipitation 16.59 20.76  
Snow  
Snow 0.00 in - - ()
Month to date snowfall 0.0  
Since 1 July snowfall T  
Snow Depth 0.00 in    
Sea Level Pressure  
Sea Level Pressure 30.04 in    
Wind  
Wind Speed 12 mph (SE)    
Max Wind Speed 22 mph    
Max Gust Speed 26 mph    
Visibility 10 miles    
Events      
T = Trace of Precipitation, MM = Missing Value Source: NWS Daily Summary

Daily Weather History Graph

Daily Weather History Graph

Search for Another Location

Airport:

Trip Planner

Search our weather history database for the weather conditions in past years. The results will help you decide how hot, cold, wet, or windy it might be!

Date:

Astronomy

May. 08, 2014 Rise Set
Actual Time 6:11 AM CDT 7:42 PM CDT
Civil Twilight 5:45 AM CDT 8:07 PM CDT
Nautical Twilight 5:14 AM CDT 8:38 PM CDT
Astronomical Twilight 4:42 AM CDT 9:11 PM CDT
Moon 2:08 PM CDT (5/8) 2:15 AM CDT (5/8)
Length of Visible Light 14h 22m
Length of Day
13h 30m
Waxing Gibbous, 65% of the Moon is Illuminated
May 8
Waxing Gibbous
May 14
Full
May 21
Last Quarter
May 28
New
Jun 5
First Quarter

Hourly Weather History & Observations

Time (CDT) Temp. Heat Index Dew Point Humidity Pressure Visibility Wind Dir Wind Speed Gust Speed Precip Events Conditions
12:53 AM 73.0 °F - 69.1 °F 87% 30.03 in 10.0 mi SE 9.2 mph - N/A   Clear
1:53 AM 72.0 °F - 70.0 °F 93% 30.02 in 10.0 mi SE 8.1 mph - N/A   Clear
2:53 AM 72.0 °F - 70.0 °F 93% 30.02 in 10.0 mi SE 8.1 mph - N/A   Clear
3:53 AM 72.0 °F - 69.1 °F 91% 30.02 in 10.0 mi SE 8.1 mph - N/A   Clear
4:53 AM 71.1 °F - 69.1 °F 93% 30.04 in 10.0 mi SE 6.9 mph - N/A   Clear
5:53 AM 72.0 °F - 69.1 °F 91% 30.04 in 10.0 mi SE 9.2 mph - N/A   Clear
6:53 AM 72.0 °F - 69.1 °F 91% 30.06 in 10.0 mi SE 9.2 mph - N/A   Clear
7:53 AM 75.0 °F - 69.1 °F 82% 30.06 in 10.0 mi SE 11.5 mph - N/A   Clear
8:53 AM 79.0 °F - 69.1 °F 72% 30.08 in 10.0 mi SSE 15.0 mph - N/A   Unknown
9:53 AM 81.0 °F - - N/A% 30.08 in 10.0 mi SSE 20.7 mph - N/A   Scattered Clouds
10:53 AM 82.0 °F 84.1 °F 66.0 °F 58% 30.08 in 10.0 mi SSE 12.7 mph 24.2 mph N/A   Scattered Clouds
11:53 AM 82.4 °F 85.4 °F 68.0 °F 62% 30.09 in - SSE 12.7 mph - N/A   Mostly Cloudy
12:53 PM 84.0 °F 86.5 °F 66.9 °F 56% 30.05 in 10.0 mi SE 19.6 mph 25.3 mph N/A   Scattered Clouds
1:53 PM 84.0 °F 86.5 °F 66.9 °F 56% 30.04 in 10.0 mi ESE 16.1 mph - N/A   Scattered Clouds
2:53 PM 82.9 °F 84.6 °F 64.9 °F 54% 30.04 in 10.0 mi SE 17.3 mph 26.5 mph N/A   Mostly Cloudy
3:53 PM 82.4 °F 85.4 °F 68.0 °F 62% 30.04 in 10.0 mi SE 16.1 mph 25.3 mph N/A   Mostly Cloudy
4:53 PM 81.0 °F 83.8 °F 68.0 °F 65% 30.02 in 10.0 mi SE 17.3 mph - N/A   Partly Cloudy
5:53 PM 81.0 °F 84.1 °F 69.1 °F 67% 30.02 in 10.0 mi SE 15.0 mph - N/A   Clear
6:53 PM 79.0 °F - 70.0 °F 74% 30.01 in 10.0 mi SE 17.3 mph - N/A   Partly Cloudy
7:53 PM 78.1 °F - 71.1 °F 79% 30.02 in 10.0 mi SE 10.4 mph - N/A   Clear
8:53 PM 77.0 °F - 71.1 °F 82% 30.03 in 10.0 mi SE 9.2 mph - N/A   Clear
9:53 PM 77.0 °F - 72.0 °F 84% 30.04 in 10.0 mi SE 8.1 mph - N/A   Clear
10:53 PM 75.9 °F - 72.0 °F 87% 30.02 in 10.0 mi SE 11.5 mph - N/A   Clear
11:53 PM 77.0 °F - 72.0 °F 84% 30.03 in 10.0 mi SSE 9.2 mph - N/A   Scattered Clouds